AZU4853 SBKP-SBVT

Flight info

Callsign AZU4853
Flight time N/A
Altitude 37000
Route UREMI UZ42 IMDAB DCT SEGLI DCT TODET
Aircraft A20N/M-SDE2E3FGHIRWXY/LB1

Departure

Time 2026-05-01 15:28
Airport Viracopos International Airport (SBKP)

Arrival

Time N/A
Airport Eurico de Aguiar Salles International Airport (SBVT)
Time Latitude Longitude Altitude Speed Heading
2026-05-01 15:19 -23.00453 -47.14789 2157 ft 0 kts 218°
2026-05-01 15:21 -23.00442 -47.14780 2150 ft 2 kts 218°
2026-05-01 15:21 -23.00429 -47.14769 2151 ft 2 kts 220°
2026-05-01 15:22 -23.00415 -47.14749 2151 ft 2 kts 279°
2026-05-01 15:22 -23.00410 -47.14764 2149 ft 2 kts 297°
2026-05-01 15:22 -23.00406 -47.14770 2150 ft 0 kts 304°
2026-05-01 15:24 -23.00399 -47.14781 2151 ft 4 kts 306°
2026-05-01 15:24 -23.00374 -47.14814 2154 ft 8 kts 309°
2026-05-01 15:24 -23.00337 -47.14867 2155 ft 9 kts 307°
2026-05-01 15:24 -23.00296 -47.14924 2153 ft 10 kts 308°
2026-05-01 15:25 -23.00250 -47.14989 2154 ft 11 kts 308°
2026-05-01 15:25 -23.00186 -47.15007 2157 ft 11 kts 33°
2026-05-01 15:25 -23.00120 -47.14952 2154 ft 12 kts 38°
2026-05-01 15:25 -23.00048 -47.14893 2157 ft 14 kts 38°
2026-05-01 15:26 -22.99991 -47.14818 2153 ft 11 kts 47°
2026-05-01 15:26 -22.99934 -47.14771 2153 ft 10 kts 38°
2026-05-01 15:26 -22.99892 -47.14707 2155 ft 11 kts 70°
2026-05-01 15:26 -22.99898 -47.14629 2152 ft 10 kts 120°
2026-05-01 15:27 -22.99990 -47.14499 2152 ft 48 kts 128°
2026-05-01 15:27 -23.00334 -47.14018 2152 ft 110 kts 128°
2026-05-01 15:27 -23.00904 -47.13221 2152 ft 155 kts 127°
2026-05-01 15:28 -23.02287 -47.11229 3139 ft 168 kts 127°
2026-05-01 15:28 -23.03036 -47.10197 3487 ft 180 kts 129°
2026-05-01 15:28 -23.04050 -47.09312 3829 ft 195 kts 148°
2026-05-01 15:29 -23.06576 -47.07725 4478 ft 225 kts 148°
2026-05-01 15:29 -23.08002 -47.06819 4622 ft 249 kts 148°
2026-05-01 15:29 -23.11228 -47.04733 5274 ft 283 kts 148°
2026-05-01 15:30 -23.14634 -47.02490 6600 ft 289 kts 148°